| time (UTC) | temp F | wind direction | speed knots | gust knots | rain 1hr in | rain 24hr in | rain mn in | humidity % | barometer mb |
| 20260507053051 | 38 | 269 | 0.0 | 1.7 | 0.00 | 0.00 | 0.00 | 64 | 1014.5 |
| 20260507051551 | 37 | 269 | 0.9 | 1.7 | 0.00 | 0.00 | 0.00 | 65 | 1014.5 |
| 20260507050052 | 37 | 235 | 0.9 | 1.7 | 0.00 | 0.00 | 0.00 | 66 | 1014.6 |
| 20260507044555 | 37 | 252 | 0.0 | 0.9 | 0.00 | 0.00 | 0.00 | 66 | 1014.6 |
| 20260507043100 | 37 | 262 | 0.0 | 0.9 | 0.00 | 0.00 | 0.00 | 69 | 1014.6 |
| 20260507041603 | 37 | 0 | 0.0 | 0.9 | 0.00 | 0.00 | 0.00 | 66 | 1014.5 |
| 20260507040057 | 38 | 0 | 0.0 | 0.0 | 0.00 | 0.00 | 0.00 | 66 | 1014.6 |
| 20260507034557 | 39 | 0 | 0.0 | 0.0 | 0.00 | 0.00 | 0.00 | 62 | 1014.6 |
| 20260507033053 | 40 | 0 | 0.0 | 0.9 | 0.00 | 0.00 | 0.00 | 59 | 1014.7 |
| 20260507031552 | 41 | 274 | 0.0 | 0.9 | 0.00 | 0.00 | 0.00 | 56 | 1014.8 |
| 20260507030058 | 42 | 269 | 0.0 | 2.6 | 0.00 | 0.00 | 0.00 | 53 | 1014.9 |
| 20260507024553 | 43 | 283 | 1.7 | 2.6 | 0.00 | 0.00 | 0.00 | 50 | 1014.7 |
| 20260507023108 | 43 | 276 | 1.7 | 4.3 | 0.00 | 0.00 | 0.00 | 50 | 1014.5 |
| 20260507021557 | 44 | 279 | 0.9 | 6.1 | 0.00 | 0.00 | 0.00 | 49 | 1014.3 |
| 20260507020054 | 45 | 290 | 3.5 | 7.8 | 0.00 | 0.00 | 0.00 | 47 | 1014.2 |
| 20260507014609 | 45 | 290 | 1.7 | 7.0 | 0.00 | 0.00 | 0.00 | 47 | 1014.1 |
| 20260507013112 | 46 | 280 | 3.5 | 7.8 | 0.00 | 0.00 | 0.00 | 46 | 1013.9 |
| 20260507011554 | 47 | 288 | 0.9 | 5.2 | 0.00 | 0.00 | 0.00 | 47 | 1013.5 |
| 20260507010059 | 47 | 274 | 3.5 | 9.6 | 0.00 | 0.00 | 0.00 | 46 | 1013.4 |
| 20260507004604 | 48 | 264 | 3.5 | 8.7 | 0.00 | 0.00 | 0.00 | 45 | 1013.2 |
| 20260507003052 | 48 | 288 | 2.6 | 8.7 | 0.00 | 0.00 | 0.00 | 44 | 1013.2 |
| 20260507001609 | 49 | 294 | 3.5 | 8.7 | 0.00 | 0.00 | 0.00 | 43 | 1012.9 |
| 20260507000052 | 49 | 290 | 2.6 | 8.7 | 0.00 | 0.00 | 0.00 | 43 | 1012.8 |
| 20260506234554 | 50 | 235 | 4.3 | 7.8 | 0.00 | 0.00 | 0.00 | 41 | 1012.8 |
| 20260506233102 | 50 | 274 | 7.0 | 10.4 | 0.00 | 0.00 | 0.00 | 41 | 1012.8 |
| 20260506231550 | 51 | 280 | 5.2 | 9.6 | 0.00 | 0.00 | 0.00 | 40 | 1012.6 |
| 20260506230056 | 51 | 242 | 3.5 | 8.7 | 0.00 | 0.00 | 0.00 | 40 | 1012.6 |
| 20260506224551 | 51 | 238 | 4.3 | 7.8 | 0.00 | 0.00 | 0.00 | 40 | 1012.4 |
| 20260506223105 | 51 | 294 | 5.2 | 9.6 | 0.00 | 0.00 | 0.00 | 39 | 1012.3 |
| 20260506221551 | 51 | 293 | 6.1 | 12.2 | 0.00 | 0.00 | 0.00 | 39 | 1012.2 |
| 20260506220056 | 52 | 271 | 5.2 | 11.3 | 0.00 | 0.00 | 0.00 | 38 | 1012.2 |
| 20260506214604 | 52 | 268 | 4.3 | 10.4 | 0.00 | 0.00 | 0.00 | 38 | 1012.0 |
| 20260506213051 | 52 | 288 | 1.7 | 8.7 | 0.00 | 0.00 | 0.00 | 39 | 1012.1 |
| 20260506211556 | 52 | 290 | 5.2 | 10.4 | 0.00 | 0.00 | 0.00 | 38 | 1012.0 |
| 20260506204555 | 52 | 279 | 2.6 | 8.7 | 0.00 | 0.00 | 0.00 | 39 | 1012.0 |
| 20260506203100 | 53 | 276 | 1.7 | 8.7 | 0.00 | 0.00 | 0.00 | 39 | 1012.1 |
| 20260506201552 | 53 | 248 | 1.7 | 11.3 | 0.00 | 0.00 | 0.00 | 38 | 1012.3 |
| 20260506200135 | 53 | 271 | 4.3 | 12.2 | 0.00 | 0.00 | 0.00 | 38 | 1012.4 |
| 20260506194558 | 53 | 242 | 3.5 | 8.7 | 0.00 | 0.00 | 0.00 | 37 | 1012.4 |
| 20260506193052 | 53 | 278 | 4.3 | 10.4 | 0.00 | 0.00 | 0.00 | 36 | 1012.2 |
| 20260506191552 | 53 | 277 | 5.2 | 9.6 | 0.00 | 0.00 | 0.00 | 36 | 1012.2 |
| 20260506190055 | 52 | 297 | 4.3 | 9.6 | 0.00 | 0.00 | 0.00 | 38 | 1012.4 |
| 20260506184555 | 52 | 245 | 4.3 | 12.2 | 0.00 | 0.00 | 0.00 | 37 | 1012.4 |
| 20260506183053 | 52 | 224 | 5.2 | 11.3 | 0.00 | 0.00 | 0.00 | 37 | 1012.3 |
| 20260506181554 | 52 | 281 | 7.0 | 12.2 | 0.00 | 0.00 | 0.00 | 38 | 1012.3 |
| 20260506174553 | 52 | 288 | 1.7 | 9.6 | 0.00 | 0.00 | 0.00 | 39 | 1012.5 |
| 20260506173111 | 52 | 283 | 4.3 | 9.6 | 0.00 | 0.00 | 0.00 | 38 | 1012.5 |
| 20260506171600 | 51 | 290 | 5.2 | 10.4 | 0.00 | 0.00 | 0.00 | 40 | 1012.7 |
| 20260506170052 | 51 | 270 | 4.3 | 13.0 | 0.00 | 0.00 | 0.00 | 38 | 1012.7 |
| 20260506164554 | 52 | 285 | 4.3 | 9.6 | 0.00 | 0.00 | 0.00 | 39 | 1012.8 |
| 20260506163058 | 52 | 292 | 3.5 | 9.6 | 0.00 | 0.00 | 0.00 | 40 | 1012.8 |
| 20260506161557 | 51 | 284 | 2.6 | 11.3 | 0.00 | 0.00 | 0.00 | 42 | 1012.7 |
| 20260506160107 | 51 | 288 | 1.7 | 9.6 | 0.00 | 0.00 | 0.00 | 40 | 1012.7 |
| 20260506154555 | 51 | 240 | 3.5 | 7.0 | 0.00 | 0.00 | 0.00 | 41 | 1012.6 |
| 20260506153052 | 51 | 295 | 4.3 | 10.4 | 0.00 | 0.00 | 0.00 | 39 | 1012.6 |
| 20260506151554 | 51 | 286 | 5.2 | 10.4 | 0.00 | 0.00 | 0.00 | 40 | 1012.6 |
| 20260506150055 | 51 | 268 | 2.6 | 8.7 | 0.00 | 0.00 | 0.00 | 41 | 1012.5 |
| 20260506144555 | 50 | 271 | 1.7 | 7.0 | 0.00 | 0.00 | 0.00 | 44 | 1012.7 |
| 20260506143057 | 49 | 245 | 3.5 | 8.7 | 0.00 | 0.00 | 0.00 | 43 | 1012.5 |
| 20260506141552 | 49 | 251 | 4.3 | 8.7 | 0.00 | 0.00 | 0.00 | 43 | 1012.5 |
| 20260506140051 | 50 | 287 | 1.7 | 4.3 | 0.00 | 0.00 | 0.00 | 47 | 1012.5 |
| 20260506134616 | 49 | 278 | 0.9 | 6.1 | 0.00 | 0.00 | 0.00 | 49 | 1012.4 |
| 20260506133056 | 48 | 285 | 0.9 | 4.3 | 0.00 | 0.00 | 0.00 | 50 | 1012.3 |
| 20260506131609 | 49 | 298 | 0.9 | 1.7 | 0.00 | 0.00 | 0.00 | 47 | 1012.2 |
| 20260506130053 | 47 | 266 | 0.0 | 1.7 | 0.00 | 0.00 | 0.00 | 58 | 1012.2 |
| 20260506124552 | 45 | 278 | 0.9 | 2.6 | 0.00 | 0.00 | 0.00 | 55 | 1012.1 |
| 20260506123055 | 44 | 277 | 0.9 | 3.5 | 0.00 | 0.00 | 0.00 | 58 | 1011.8 |
| 20260506121601 | 43 | 271 | 0.0 | 0.9 | 0.00 | 0.00 | 0.00 | 64 | 1011.7 |
| 20260506120053 | 40 | 271 | 0.0 | 0.9 | 0.00 | 0.00 | 0.00 | 71 | 1011.7 |
| 20260506114553 | 38 | 0 | 0.0 | 0.9 | 0.00 | 0.00 | 0.00 | 82 | 1011.7 |
| 20260506113054 | 36 | 0 | 0.0 | 0.0 | 0.00 | 0.00 | 0.00 | 84 | 1011.5 |
| 20260506111611 | 34 | 252 | 0.0 | 0.9 | 0.00 | 0.00 | 0.00 | 87 | 1011.5 |
| 20260506110057 | 32 | 0 | 0.0 | 0.9 | 0.00 | 0.00 | 0.00 | 89 | 1011.4 |
| 20260506104551 | 32 | 0 | 0.0 | 0.0 | 0.00 | 0.00 | 0.00 | 90 | 1011.0 |
| 20260506103052 | 33 | 0 | 0.0 | 0.9 | 0.00 | 0.00 | 0.00 | 89 | 1010.9 |
| 20260506101554 | 33 | 0 | 0.0 | 0.0 | 0.00 | 0.00 | 0.00 | 89 | 1010.8 |
| 20260506100054 | 33 | 0 | 0.0 | 0.9 | 0.00 | 0.00 | 0.00 | 89 | 1010.9 |
| 20260506094556 | 34 | 286 | 0.0 | 0.9 | 0.00 | 0.00 | 0.00 | 86 | 1010.8 |
| 20260506093058 | 34 | 0 | 0.0 | 0.0 | 0.00 | 0.00 | 0.00 | 86 | 1011.1 |
| 20260506091556 | 35 | 0 | 0.0 | 0.0 | 0.00 | 0.00 | 0.00 | 85 | 1011.0 |
| 20260506090053 | 34 | 0 | 0.0 | 0.0 | 0.00 | 0.00 | 0.00 | 77 | 1011.0 |
| 20260506084550 | 34 | 0 | 0.0 | 0.0 | 0.00 | 0.00 | 0.00 | 84 | 1011.0 |
| 20260506083114 | 35 | 0 | 0.0 | 0.9 | 0.00 | 0.00 | 0.00 | 86 | 1010.8 |
| 20260506081554 | 36 | 0 | 0.0 | 0.0 | 0.00 | 0.00 | 0.00 | 85 | 1010.6 |
| 20260506073056 | 37 | 0 | 0.0 | 0.0 | 0.00 | 0.00 | 0.00 | 77 | 1010.4 |
| 20260506071557 | 38 | 0 | 0.0 | 0.0 | 0.00 | 0.00 | 0.00 | 79 | 1010.3 |
| 20260506070112 | 39 | 0 | 0.0 | 0.0 | 0.00 | 0.00 | 0.00 | 75 | 1010.4 |
| 20260506061601 | 40 | 0 | 0.0 | 0.9 | 0.00 | 0.00 | 0.00 | 60 | 1010.6 |